Year,Month,Day,Hour,Minute,Value (Times are PST for temperature in C)
2007,04,10,00,00,7.20
2007,04,10,00,01,7.20
2007,04,10,00,02,7.10
2007,04,10,00,03,7.10
2007,04,10,00,04,7.10
2007,04,10,00,05,7.10
2007,04,10,00,06,7.10
2007,04,10,00,07,7.10
2007,04,10,00,08,7.10
2007,04,10,00,09,7.10
2007,04,10,00,10,7.10
2007,04,10,00,11,7.10
2007,04,10,00,12,7.10
2007,04,10,00,13,7.10
2007,04,10,00,14,7.10
2007,04,10,00,15,7.10
2007,04,10,00,16,7.10
2007,04,10,00,17,7.10
2007,04,10,00,18,7.10
2007,04,10,00,19,7.10
2007,04,10,00,20,7.10
2007,04,10,00,21,7.10
2007,04,10,00,22,7.10
2007,04,10,00,23,7.10
2007,04,10,00,24,7.10
2007,04,10,00,25,7.10
2007,04,10,00,26,7.10
2007,04,10,00,27,7.00
2007,04,10,00,28,7.00
2007,04,10,00,29,7.00
2007,04,10,00,30,7.00
2007,04,10,00,31,7.00
2007,04,10,00,32,6.90
2007,04,10,00,33,6.90
2007,04,10,00,34,6.90
2007,04,10,00,35,6.90
2007,04,10,00,36,6.90
2007,04,10,00,37,6.90
2007,04,10,00,38,6.90
2007,04,10,00,39,6.90
2007,04,10,00,40,6.90
2007,04,10,00,41,6.90
2007,04,10,00,42,6.90
2007,04,10,00,43,6.90
2007,04,10,00,44,6.90
2007,04,10,00,45,6.90
2007,04,10,00,46,6.90
2007,04,10,00,47,6.90
2007,04,10,00,48,6.90
2007,04,10,00,49,6.90
2007,04,10,00,50,6.90
2007,04,10,00,51,6.90
2007,04,10,00,52,6.90
2007,04,10,00,53,6.90
2007,04,10,00,54,6.90
2007,04,10,00,55,6.90
2007,04,10,00,56,6.90
2007,04,10,00,57,6.90
2007,04,10,00,58,6.90
2007,04,10,00,59,6.90
2007,04,10,01,00,6.90
2007,04,10,01,01,6.90
2007,04,10,01,02,6.90
2007,04,10,01,03,6.90
2007,04,10,01,04,6.90
2007,04,10,01,05,6.90
2007,04,10,01,06,7.00
2007,04,10,01,07,7.00
2007,04,10,01,08,7.00
2007,04,10,01,09,7.00
2007,04,10,01,10,6.90
2007,04,10,01,11,6.90
2007,04,10,01,12,6.90
2007,04,10,01,13,6.90
2007,04,10,01,14,6.90
2007,04,10,01,15,6.90
2007,04,10,01,16,6.90
2007,04,10,01,17,6.80
2007,04,10,01,18,6.80
2007,04,10,01,19,6.80
2007,04,10,01,20,6.80
2007,04,10,01,21,6.80
2007,04,10,01,22,6.80
2007,04,10,01,23,6.80
2007,04,10,01,24,6.70
2007,04,10,01,25,6.70
2007,04,10,01,26,6.70
2007,04,10,01,27,6.70
2007,04,10,01,28,6.60
2007,04,10,01,29,6.60
2007,04,10,01,30,6.60
2007,04,10,01,31,6.60
2007,04,10,01,32,6.60
2007,04,10,01,33,6.60
2007,04,10,01,34,6.60
2007,04,10,01,35,6.60
2007,04,10,01,36,6.60
2007,04,10,01,37,6.60
2007,04,10,01,38,6.60
2007,04,10,01,39,6.60
2007,04,10,01,40,6.50
2007,04,10,01,41,6.50
2007,04,10,01,42,6.50
2007,04,10,01,43,6.40
2007,04,10,01,44,6.40
2007,04,10,01,45,6.40
2007,04,10,01,46,6.40
2007,04,10,01,47,6.40
2007,04,10,01,48,6.40
2007,04,10,01,49,6.40
2007,04,10,01,50,6.40
2007,04,10,01,51,6.40
2007,04,10,01,52,6.40
2007,04,10,01,53,6.40
2007,04,10,01,54,6.50
2007,04,10,01,55,6.50
2007,04,10,01,56,6.50
2007,04,10,01,57,6.50
2007,04,10,01,58,6.50
2007,04,10,01,59,6.50
2007,04,10,02,00,6.50
2007,04,10,02,01,6.40
2007,04,10,02,02,6.40
2007,04,10,02,03,6.40
2007,04,10,02,04,6.40
2007,04,10,02,05,6.40
2007,04,10,02,06,6.40
2007,04,10,02,07,6.40
2007,04,10,02,08,6.40
2007,04,10,02,09,6.30
2007,04,10,02,10,6.30
2007,04,10,02,11,6.30
2007,04,10,02,12,6.20
2007,04,10,02,13,6.20
2007,04,10,02,14,6.20
2007,04,10,02,15,6.20
2007,04,10,02,16,6.20
2007,04,10,02,17,6.20
2007,04,10,02,18,6.20
2007,04,10,02,19,6.20
2007,04,10,02,20,6.20
2007,04,10,02,21,6.20
2007,04,10,02,22,6.30
2007,04,10,02,23,6.30
2007,04,10,02,24,6.30
2007,04,10,02,25,6.30
2007,04,10,02,26,6.30
2007,04,10,02,27,6.30
2007,04,10,02,28,6.30
2007,04,10,02,29,6.30
2007,04,10,02,30,6.30
2007,04,10,02,31,6.20
2007,04,10,02,32,6.20
2007,04,10,02,33,6.20
2007,04,10,02,34,6.20
2007,04,10,02,35,6.20
2007,04,10,02,36,6.20
2007,04,10,02,37,6.20
2007,04,10,02,38,6.20
2007,04,10,02,39,6.20
2007,04,10,02,40,6.10
2007,04,10,02,41,6.10
2007,04,10,02,42,6.10
2007,04,10,02,43,6.10
2007,04,10,02,44,6.10
2007,04,10,02,45,6.10
2007,04,10,02,46,6.10
2007,04,10,02,47,6.10
2007,04,10,02,48,6.10
2007,04,10,02,49,6.10
2007,04,10,02,50,6.10
2007,04,10,02,51,6.00
2007,04,10,02,52,6.10
2007,04,10,02,53,6.00
2007,04,10,02,54,6.00
2007,04,10,02,55,6.00
2007,04,10,02,56,6.00
2007,04,10,02,57,6.00
2007,04,10,02,58,6.00
2007,04,10,02,59,6.00
2007,04,10,03,00,6.00
2007,04,10,03,01,6.10
2007,04,10,03,02,6.10
2007,04,10,03,03,6.10
2007,04,10,03,04,6.10
2007,04,10,03,05,6.10
2007,04,10,03,06,6.10
2007,04,10,03,07,6.00
2007,04,10,03,08,6.00
2007,04,10,03,09,6.00
2007,04,10,03,10,6.10
2007,04,10,03,11,6.10
2007,04,10,03,12,6.10
2007,04,10,03,13,6.00
2007,04,10,03,14,6.00
2007,04,10,03,15,6.00
2007,04,10,03,16,6.00
2007,04,10,03,17,6.00
2007,04,10,03,18,5.90
2007,04,10,03,19,5.90
2007,04,10,03,20,5.90
2007,04,10,03,21,5.90
2007,04,10,03,22,5.90
2007,04,10,03,23,5.90
2007,04,10,03,24,5.90
2007,04,10,03,25,5.90
2007,04,10,03,26,5.90
2007,04,10,03,27,5.90
2007,04,10,03,28,5.80
2007,04,10,03,29,5.80
2007,04,10,03,30,5.80
2007,04,10,03,31,5.80
2007,04,10,03,32,5.80
2007,04,10,03,33,5.80
2007,04,10,03,34,5.80
2007,04,10,03,35,5.80
2007,04,10,03,36,5.90
2007,04,10,03,37,5.90
2007,04,10,03,38,5.90
2007,04,10,03,39,6.00
2007,04,10,03,40,6.10
2007,04,10,03,41,6.10
2007,04,10,03,42,6.10
2007,04,10,03,43,6.10
2007,04,10,03,44,6.10
2007,04,10,03,45,6.10
2007,04,10,03,46,6.10
2007,04,10,03,47,6.10
2007,04,10,03,48,6.10
2007,04,10,03,49,6.10
2007,04,10,03,50,6.00
2007,04,10,03,51,6.00
2007,04,10,03,52,6.00
2007,04,10,03,53,6.00
2007,04,10,03,54,5.90
2007,04,10,03,55,5.90
2007,04,10,03,56,5.90
2007,04,10,03,57,5.90
2007,04,10,03,58,5.90
2007,04,10,03,59,5.90
2007,04,10,04,00,5.90
2007,04,10,04,01,5.80
2007,04,10,04,02,5.80
2007,04,10,04,03,5.80
2007,04,10,04,04,5.80
2007,04,10,04,05,5.90
2007,04,10,04,06,6.00
2007,04,10,04,07,6.00
2007,04,10,04,08,6.00
2007,04,10,04,09,6.00
2007,04,10,04,10,6.00
2007,04,10,04,11,5.90
2007,04,10,04,12,5.90
2007,04,10,04,13,5.90
2007,04,10,04,14,5.80
2007,04,10,04,15,5.80
2007,04,10,04,16,5.80
2007,04,10,04,17,5.70
2007,04,10,04,18,5.70
2007,04,10,04,19,5.60
2007,04,10,04,20,5.60
2007,04,10,04,21,5.50
2007,04,10,04,22,5.50
2007,04,10,04,23,5.40
2007,04,10,04,24,5.40
2007,04,10,04,25,5.30
2007,04,10,04,26,5.30
2007,04,10,04,27,5.20
2007,04,10,04,28,5.10
2007,04,10,04,29,5.10
2007,04,10,04,30,5.10
2007,04,10,04,31,5.10
2007,04,10,04,32,5.10
2007,04,10,04,33,5.10
2007,04,10,04,34,5.10
2007,04,10,04,35,5.10
2007,04,10,04,36,5.10
2007,04,10,04,37,5.10
2007,04,10,04,38,5.10
2007,04,10,04,39,5.10
2007,04,10,04,40,5.10
2007,04,10,04,41,5.10
2007,04,10,04,42,5.20
2007,04,10,04,43,5.20
2007,04,10,04,44,5.20
2007,04,10,04,45,5.20
2007,04,10,04,46,5.20
2007,04,10,04,47,5.30
2007,04,10,04,48,5.30
2007,04,10,04,49,5.40
2007,04,10,04,50,5.50
2007,04,10,04,51,5.50
2007,04,10,04,52,5.60
2007,04,10,04,53,5.70
2007,04,10,04,54,5.80
2007,04,10,04,55,5.80
2007,04,10,04,56,5.90
2007,04,10,04,57,5.90
2007,04,10,04,58,5.90
2007,04,10,04,59,5.90
2007,04,10,05,00,5.90
2007,04,10,05,01,5.90
2007,04,10,05,02,5.90
2007,04,10,05,03,5.90
2007,04,10,05,04,5.90
2007,04,10,05,05,5.80
2007,04,10,05,06,5.80
2007,04,10,05,07,5.80
2007,04,10,05,08,5.70
2007,04,10,05,09,5.70
2007,04,10,05,10,5.70
2007,04,10,05,11,5.60
2007,04,10,05,12,5.60
2007,04,10,05,13,5.50
2007,04,10,05,14,5.50
2007,04,10,05,15,5.40
2007,04,10,05,16,5.30
2007,04,10,05,17,5.30
2007,04,10,05,18,5.20
2007,04,10,05,19,5.10
2007,04,10,05,20,5.10
2007,04,10,05,21,5.00
2007,04,10,05,22,5.00
2007,04,10,05,23,4.90
2007,04,10,05,24,4.90
2007,04,10,05,25,4.80
2007,04,10,05,26,4.80
2007,04,10,05,27,4.80
2007,04,10,05,28,4.70
2007,04,10,05,29,4.70
2007,04,10,05,30,4.60
2007,04,10,05,31,4.60
2007,04,10,05,32,4.50
2007,04,10,05,33,4.50
2007,04,10,05,34,4.50
2007,04,10,05,35,4.40
2007,04,10,05,36,4.40
2007,04,10,05,37,4.40
2007,04,10,05,38,4.40
2007,04,10,05,39,4.40
2007,04,10,05,40,4.40
2007,04,10,05,41,4.40
2007,04,10,05,42,4.40
2007,04,10,05,43,4.40
2007,04,10,05,44,4.30
2007,04,10,05,45,4.30
2007,04,10,05,46,4.20
2007,04,10,05,47,4.20
2007,04,10,05,48,4.10
2007,04,10,05,49,4.10
2007,04,10,05,50,4.10
2007,04,10,05,51,4.10
2007,04,10,05,52,4.10
2007,04,10,05,53,4.10
2007,04,10,05,54,4.10
2007,04,10,05,55,4.10
2007,04,10,05,56,4.10
2007,04,10,05,57,4.20
2007,04,10,05,58,4.20
2007,04,10,05,59,4.30
2007,04,10,06,00,4.30
2007,04,10,06,01,4.40
2007,04,10,06,02,4.50
2007,04,10,06,03,4.60
2007,04,10,06,04,4.70
2007,04,10,06,05,4.80
2007,04,10,06,06,4.80
2007,04,10,06,07,4.90
2007,04,10,06,08,5.00
2007,04,10,06,09,5.10
2007,04,10,06,10,5.10
2007,04,10,06,11,5.10
2007,04,10,06,12,5.10
2007,04,10,06,13,5.10
2007,04,10,06,14,5.10
2007,04,10,06,15,5.00
2007,04,10,06,16,5.00
2007,04,10,06,17,4.90
2007,04,10,06,18,4.80
2007,04,10,06,19,4.70
2007,04,10,06,20,4.70
2007,04,10,06,21,4.60
2007,04,10,06,22,4.60
2007,04,10,06,23,4.50
2007,04,10,06,24,4.40
2007,04,10,06,25,4.40
2007,04,10,06,26,4.30
2007,04,10,06,27,4.20
2007,04,10,06,28,4.10
2007,04,10,06,29,4.00
2007,04,10,06,30,4.00
2007,04,10,06,31,3.90
2007,04,10,06,32,3.80
2007,04,10,06,33,3.80
2007,04,10,06,34,3.70
2007,04,10,06,35,3.70
2007,04,10,06,36,3.60
2007,04,10,06,37,3.60
2007,04,10,06,38,3.60
2007,04,10,06,39,3.60
2007,04,10,06,40,3.60
2007,04,10,06,41,3.50
2007,04,10,06,42,3.50
2007,04,10,06,43,3.50
2007,04,10,06,44,3.40
2007,04,10,06,45,3.30
2007,04,10,06,46,3.30
2007,04,10,06,47,3.30
2007,04,10,06,48,3.30
2007,04,10,06,49,3.30
2007,04,10,06,50,3.30
2007,04,10,06,51,3.30
2007,04,10,06,52,3.30
2007,04,10,06,53,3.30
2007,04,10,06,54,3.20
2007,04,10,06,55,3.20
2007,04,10,06,56,3.20
2007,04,10,06,57,3.20
2007,04,10,06,58,3.10
2007,04,10,06,59,3.10
2007,04,10,07,00,3.10
2007,04,10,07,01,3.10
2007,04,10,07,02,3.10
2007,04,10,07,03,3.10
2007,04,10,07,04,3.10
2007,04,10,07,05,3.10
2007,04,10,07,06,3.10
2007,04,10,07,07,3.10
2007,04,10,07,08,3.20
2007,04,10,07,09,3.10
2007,04,10,07,10,3.20
2007,04,10,07,11,3.20
2007,04,10,07,12,3.20
2007,04,10,07,13,3.20
2007,04,10,07,14,3.20
2007,04,10,07,15,3.30
2007,04,10,07,16,3.40
2007,04,10,07,17,3.40
2007,04,10,07,18,3.50
2007,04,10,07,19,3.50
2007,04,10,07,20,3.50
2007,04,10,07,21,3.60
2007,04,10,07,22,3.60
2007,04,10,07,23,3.60
2007,04,10,07,24,3.70
2007,04,10,07,25,3.70
2007,04,10,07,26,3.70
2007,04,10,07,27,3.80
2007,04,10,07,28,3.80
2007,04,10,07,29,3.90
2007,04,10,07,30,3.90
2007,04,10,07,31,4.00
2007,04,10,07,32,4.00
2007,04,10,07,33,4.10
2007,04,10,07,34,4.10
2007,04,10,07,35,4.20
2007,04,10,07,36,4.20
2007,04,10,07,37,4.30
2007,04,10,07,38,4.30
2007,04,10,07,39,4.40
2007,04,10,07,40,4.40
2007,04,10,07,41,4.50
2007,04,10,07,42,4.50
2007,04,10,07,43,4.50
2007,04,10,07,44,4.60
2007,04,10,07,45,4.60
2007,04,10,07,46,4.70
2007,04,10,07,47,4.70
2007,04,10,07,48,4.80
2007,04,10,07,49,4.90
2007,04,10,07,50,4.90
2007,04,10,07,51,5.00
2007,04,10,07,52,5.00
2007,04,10,07,53,5.10
2007,04,10,07,54,5.10
2007,04,10,07,55,5.10
2007,04,10,07,56,5.20
2007,04,10,07,57,5.20
2007,04,10,07,58,5.30
2007,04,10,07,59,5.30
2007,04,10,08,00,5.40
2007,04,10,08,01,5.50
2007,04,10,08,02,5.60
2007,04,10,08,03,5.70
2007,04,10,08,04,5.80
2007,04,10,08,05,5.80
2007,04,10,08,06,5.80
2007,04,10,08,07,5.90
2007,04,10,08,08,6.00
2007,04,10,08,09,6.10
2007,04,10,08,10,6.10
2007,04,10,08,11,6.20
2007,04,10,08,12,6.20
2007,04,10,08,13,6.30
2007,04,10,08,14,6.30
2007,04,10,08,15,6.40
2007,04,10,08,16,6.40
2007,04,10,08,17,6.50
2007,04,10,08,18,6.50
2007,04,10,08,19,6.60
2007,04,10,08,20,6.70
2007,04,10,08,21,6.80
2007,04,10,08,22,6.90
2007,04,10,08,23,7.00
2007,04,10,08,24,7.20
2007,04,10,08,25,7.20
2007,04,10,08,26,7.40
2007,04,10,08,27,7.50
2007,04,10,08,28,7.60
2007,04,10,08,29,7.70
2007,04,10,08,30,7.70
2007,04,10,08,31,7.80
2007,04,10,08,32,7.90
2007,04,10,08,33,7.90
2007,04,10,08,34,7.90
2007,04,10,08,35,8.00
2007,04,10,08,36,8.00
2007,04,10,08,37,8.00
2007,04,10,08,38,8.10
2007,04,10,08,39,8.10
2007,04,10,08,40,8.20
2007,04,10,08,41,8.20
2007,04,10,08,42,8.20
2007,04,10,08,43,8.20
2007,04,10,08,44,8.20
2007,04,10,08,45,8.20
2007,04,10,08,46,8.20
2007,04,10,08,47,8.20
2007,04,10,08,48,8.20
2007,04,10,08,49,8.30
2007,04,10,08,50,8.30
2007,04,10,08,51,8.30
2007,04,10,08,52,8.30
2007,04,10,08,53,8.30
2007,04,10,08,54,8.30
2007,04,10,08,55,8.30
2007,04,10,08,56,8.30
2007,04,10,08,57,8.30
2007,04,10,08,58,8.30
2007,04,10,08,59,8.30
2007,04,10,09,00,8.30
2007,04,10,09,01,8.40
2007,04,10,09,02,8.40
2007,04,10,09,03,8.50
2007,04,10,09,04,8.50
2007,04,10,09,05,8.50
2007,04,10,09,06,8.60
2007,04,10,09,07,8.60
2007,04,10,09,08,8.60
2007,04,10,09,09,8.70
2007,04,10,09,10,8.70
2007,04,10,09,11,8.70
2007,04,10,09,12,8.70
2007,04,10,09,13,8.70
2007,04,10,09,14,8.70
2007,04,10,09,15,8.70
2007,04,10,09,16,8.70
2007,04,10,09,17,8.70
2007,04,10,09,18,8.80
2007,04,10,09,19,8.80
2007,04,10,09,20,8.80
2007,04,10,09,21,8.80
2007,04,10,09,22,8.80
2007,04,10,09,23,8.90
2007,04,10,09,24,9.00
2007,04,10,09,25,9.00
2007,04,10,09,26,9.10
2007,04,10,09,27,9.10
2007,04,10,09,28,9.20
2007,04,10,09,29,9.30
2007,04,10,09,30,9.40
2007,04,10,09,31,9.50
2007,04,10,09,32,9.60
2007,04,10,09,33,9.60
2007,04,10,09,34,9.60
2007,04,10,09,35,9.60
2007,04,10,09,36,9.40
2007,04,10,09,37,9.30
2007,04,10,09,38,9.30
2007,04,10,09,39,9.40
2007,04,10,09,40,9.40
2007,04,10,09,41,9.50
2007,04,10,09,42,9.50
2007,04,10,09,43,9.50
2007,04,10,09,44,9.40
2007,04,10,09,45,9.30
2007,04,10,09,46,9.30
2007,04,10,09,47,9.40
2007,04,10,09,48,9.40
2007,04,10,09,49,9.40
2007,04,10,09,50,9.30
2007,04,10,09,51,9.30
2007,04,10,09,52,9.20
2007,04,10,09,53,9.10
2007,04,10,09,54,9.10
2007,04,10,09,55,9.00
2007,04,10,09,56,8.90
2007,04,10,09,57,8.80
2007,04,10,09,58,8.70
2007,04,10,09,59,8.60
2007,04,10,10,00,8.60
2007,04,10,10,01,8.50
2007,04,10,10,02,8.40
2007,04,10,10,03,8.40
2007,04,10,10,04,8.50
2007,04,10,10,05,8.50
2007,04,10,10,06,8.50
2007,04,10,10,07,8.50
2007,04,10,10,08,8.60
2007,04,10,10,09,8.60
2007,04,10,10,10,8.70
2007,04,10,10,11,8.70
2007,04,10,10,12,8.70
2007,04,10,10,13,8.80
2007,04,10,10,14,8.70
2007,04,10,10,15,8.60
2007,04,10,10,16,8.60
2007,04,10,10,17,8.60
2007,04,10,10,18,8.60
2007,04,10,10,19,8.60
2007,04,10,10,20,8.60
2007,04,10,10,21,8.70
2007,04,10,10,22,8.80
2007,04,10,10,23,8.90
2007,04,10,10,24,9.00
2007,04,10,10,25,9.00
2007,04,10,10,26,9.00
2007,04,10,10,27,8.90
2007,04,10,10,28,8.90
2007,04,10,10,29,8.80
2007,04,10,10,30,8.70
2007,04,10,10,31,8.70
2007,04,10,10,32,8.70
2007,04,10,10,33,8.70
2007,04,10,10,34,8.60
2007,04,10,10,35,8.60
2007,04,10,10,36,8.50
2007,04,10,10,37,8.50
2007,04,10,10,38,8.40
2007,04,10,10,39,8.40
2007,04,10,10,40,8.30
2007,04,10,10,41,8.30
2007,04,10,10,42,8.20
2007,04,10,10,43,8.20
2007,04,10,10,44,8.20
2007,04,10,10,45,8.20
2007,04,10,10,46,8.30
2007,04,10,10,47,8.50
2007,04,10,10,48,8.60
2007,04,10,10,49,8.70
2007,04,10,10,50,8.80
2007,04,10,10,51,8.80
2007,04,10,10,52,8.90
2007,04,10,10,53,8.90
2007,04,10,10,54,8.90
2007,04,10,10,55,8.90
2007,04,10,10,56,9.00
2007,04,10,10,57,8.90
2007,04,10,10,58,8.90
2007,04,10,10,59,8.90
2007,04,10,11,00,9.00
2007,04,10,11,01,9.10
2007,04,10,11,02,9.10
2007,04,10,11,03,9.10
2007,04,10,11,04,9.10
2007,04,10,11,05,9.10
2007,04,10,11,06,9.00
2007,04,10,11,07,9.10
2007,04,10,11,08,9.10
2007,04,10,11,09,9.10
2007,04,10,11,10,9.00
2007,04,10,11,11,9.00
2007,04,10,11,12,8.90
2007,04,10,11,13,8.90
2007,04,10,11,14,8.90
2007,04,10,11,15,8.80
2007,04,10,11,16,8.80
2007,04,10,11,17,8.70
2007,04,10,11,18,8.70
2007,04,10,11,19,8.60
2007,04,10,11,20,8.60
2007,04,10,11,21,8.60
2007,04,10,11,22,8.70
2007,04,10,11,23,8.80
2007,04,10,11,24,9.00
2007,04,10,11,25,9.20
2007,04,10,11,26,9.40
2007,04,10,11,27,9.60
2007,04,10,11,28,9.60
2007,04,10,11,29,9.60
2007,04,10,11,30,9.60
2007,04,10,11,31,9.50
2007,04,10,11,32,9.50
2007,04,10,11,33,9.60
2007,04,10,11,34,9.60
2007,04,10,11,35,9.70
2007,04,10,11,36,9.80
2007,04,10,11,37,9.80
2007,04,10,11,38,9.80
2007,04,10,11,39,9.90
2007,04,10,11,40,10.00
2007,04,10,11,41,10.10
2007,04,10,11,42,10.10
2007,04,10,11,43,10.10
2007,04,10,11,44,10.10
2007,04,10,11,45,10.10
2007,04,10,11,46,10.10
2007,04,10,11,47,10.20
2007,04,10,11,48,10.10
2007,04,10,11,49,10.10
2007,04,10,11,50,10.20
2007,04,10,11,51,10.30
2007,04,10,11,52,10.30
2007,04,10,11,53,10.30
2007,04,10,11,54,10.30
2007,04,10,11,55,10.30
2007,04,10,11,56,10.30
2007,04,10,11,57,10.30
2007,04,10,11,58,10.40
2007,04,10,11,59,10.50
2007,04,10,12,00,10.60
2007,04,10,12,01,10.60
2007,04,10,12,02,10.50
2007,04,10,12,03,10.40
2007,04,10,12,04,10.30
2007,04,10,12,05,10.20
2007,04,10,12,06,10.10
2007,04,10,12,07,10.10
2007,04,10,12,08,10.10
2007,04,10,12,09,10.20
2007,04,10,12,10,10.10
2007,04,10,12,11,10.00
2007,04,10,12,12,10.00
2007,04,10,12,13,10.10
2007,04,10,12,14,10.20
2007,04,10,12,15,10.40
2007,04,10,12,16,10.50
2007,04,10,12,17,10.60
2007,04,10,12,18,10.40
2007,04,10,12,19,10.30
2007,04,10,12,20,10.20
2007,04,10,12,21,10.00
2007,04,10,12,22,9.90
2007,04,10,12,23,9.80
2007,04,10,12,24,9.70
2007,04,10,12,25,9.60
2007,04,10,12,26,9.40
2007,04,10,12,27,9.30
2007,04,10,12,28,9.20
2007,04,10,12,29,9.20
2007,04,10,12,30,9.10
2007,04,10,12,31,9.10
2007,04,10,12,32,9.00
2007,04,10,12,33,9.00
2007,04,10,12,34,8.90
2007,04,10,12,35,8.80
2007,04,10,12,36,8.80
2007,04,10,12,37,8.80
2007,04,10,12,38,8.80
2007,04,10,12,39,8.80
2007,04,10,12,40,8.80
2007,04,10,12,41,8.80
2007,04,10,12,42,8.80
2007,04,10,12,43,8.80
2007,04,10,12,44,8.80
2007,04,10,12,45,8.80
2007,04,10,12,46,8.80
2007,04,10,12,47,8.90
2007,04,10,12,48,8.90
2007,04,10,12,49,9.00
2007,04,10,12,50,9.00
2007,04,10,12,51,9.10
2007,04,10,12,52,9.10
2007,04,10,12,53,9.10
2007,04,10,12,54,9.10
2007,04,10,12,55,9.10
2007,04,10,12,56,9.10
2007,04,10,12,57,9.10
2007,04,10,12,58,9.10
2007,04,10,12,59,9.20
2007,04,10,13,00,9.20
2007,04,10,13,01,9.20
2007,04,10,13,02,9.20
2007,04,10,13,03,9.20
2007,04,10,13,04,9.10
2007,04,10,13,05,9.10
2007,04,10,13,06,9.10
2007,04,10,13,07,9.10
2007,04,10,13,08,9.10
2007,04,10,13,09,9.10
2007,04,10,13,10,9.10
2007,04,10,13,11,9.10
2007,04,10,13,12,9.00
2007,04,10,13,13,9.00
2007,04,10,13,14,8.90
2007,04,10,13,15,9.00
2007,04,10,13,16,9.00
2007,04,10,13,17,9.00
2007,04,10,13,18,9.00
2007,04,10,13,19,8.90
2007,04,10,13,20,8.90
2007,04,10,13,21,8.90
2007,04,10,13,22,9.00
2007,04,10,13,23,8.90
2007,04,10,13,24,8.90
2007,04,10,13,25,8.90
2007,04,10,13,26,8.90
2007,04,10,13,27,9.00
2007,04,10,13,28,9.00
2007,04,10,13,29,9.10
2007,04,10,13,30,9.10
2007,04,10,13,31,9.10
2007,04,10,13,32,9.20
2007,04,10,13,33,9.20
2007,04,10,13,34,9.10
2007,04,10,13,35,9.10
2007,04,10,13,36,9.10
2007,04,10,13,37,9.10
2007,04,10,13,38,9.10
2007,04,10,13,39,9.10
2007,04,10,13,40,9.10
2007,04,10,13,41,9.10
2007,04,10,13,42,9.00
2007,04,10,13,43,9.00
2007,04,10,13,44,9.00
2007,04,10,13,45,9.10
2007,04,10,13,46,9.10
2007,04,10,13,47,9.10
2007,04,10,13,48,9.00
2007,04,10,13,49,8.90
2007,04,10,13,50,8.90
2007,04,10,13,51,9.00
2007,04,10,13,52,9.00
2007,04,10,13,53,9.10
2007,04,10,13,54,9.10
2007,04,10,13,55,9.30
2007,04,10,13,56,9.30
2007,04,10,13,57,9.40
2007,04,10,13,58,9.60
2007,04,10,13,59,9.60
2007,04,10,14,00,9.70
2007,04,10,14,01,9.80
2007,04,10,14,02,9.80
2007,04,10,14,03,9.80
2007,04,10,14,04,9.80
2007,04,10,14,05,9.80
2007,04,10,14,06,9.80
2007,04,10,14,07,9.80
2007,04,10,14,08,9.80
2007,04,10,14,09,9.80
2007,04,10,14,10,9.80
2007,04,10,14,11,9.80
2007,04,10,14,12,9.70
2007,04,10,14,13,9.60
2007,04,10,14,14,9.50
2007,04,10,14,15,9.50
2007,04,10,14,16,9.50
2007,04,10,14,17,9.50
2007,04,10,14,18,9.50
2007,04,10,14,19,9.50
2007,04,10,14,20,9.50
2007,04,10,14,21,9.50
2007,04,10,14,22,9.60
2007,04,10,14,23,9.60
2007,04,10,14,24,9.70
2007,04,10,14,25,9.80
2007,04,10,14,26,9.90
2007,04,10,14,27,10.00
2007,04,10,14,28,10.20
2007,04,10,14,29,10.30
2007,04,10,14,30,10.40
2007,04,10,14,31,10.50
2007,04,10,14,32,10.60
2007,04,10,14,33,10.60
2007,04,10,14,34,10.60
2007,04,10,14,35,10.70
2007,04,10,14,36,10.70
2007,04,10,14,37,10.60
2007,04,10,14,38,10.50
2007,04,10,14,39,10.30
2007,04,10,14,40,10.20
2007,04,10,14,41,10.20
2007,04,10,14,42,10.10
2007,04,10,14,43,10.00
2007,04,10,14,44,10.00
2007,04,10,14,45,10.00
2007,04,10,14,46,10.00
2007,04,10,14,47,10.00
2007,04,10,14,48,10.10
2007,04,10,14,49,10.10
2007,04,10,14,50,10.10
2007,04,10,14,51,10.10
2007,04,10,14,52,10.20
2007,04,10,14,53,10.10
2007,04,10,14,54,10.10
2007,04,10,14,55,10.10
2007,04,10,14,56,10.10
2007,04,10,14,57,10.10
2007,04,10,14,58,10.10
2007,04,10,14,59,10.20
2007,04,10,15,00,10.30
2007,04,10,15,01,10.30
2007,04,10,15,02,10.30
2007,04,10,15,03,10.30
2007,04,10,15,04,10.20
2007,04,10,15,05,10.10
2007,04,10,15,06,10.00
2007,04,10,15,07,10.00
2007,04,10,15,08,10.00
2007,04,10,15,09,10.10
2007,04,10,15,10,10.00
2007,04,10,15,11,9.90
2007,04,10,15,12,9.80
2007,04,10,15,13,9.80
2007,04,10,15,14,9.80
2007,04,10,15,15,9.80
2007,04,10,15,16,9.90
2007,04,10,15,17,9.90
2007,04,10,15,18,10.00
2007,04,10,15,19,10.10
2007,04,10,15,20,10.10
2007,04,10,15,21,10.10
2007,04,10,15,22,10.20
2007,04,10,15,23,10.20
2007,04,10,15,24,10.10
2007,04,10,15,25,10.10
2007,04,10,15,26,10.10
2007,04,10,15,27,10.10
2007,04,10,15,28,10.10
2007,04,10,15,29,10.20
2007,04,10,15,30,10.20
2007,04,10,15,31,10.20
2007,04,10,15,32,10.20
2007,04,10,15,33,10.10
2007,04,10,15,34,10.10
2007,04,10,15,35,10.10
2007,04,10,15,36,10.00
2007,04,10,15,37,10.00
2007,04,10,15,38,10.00
2007,04,10,15,39,10.00
2007,04,10,15,40,10.00
2007,04,10,15,41,10.00
2007,04,10,15,42,9.90
2007,04,10,15,43,9.90
2007,04,10,15,44,9.80
2007,04,10,15,45,9.90
2007,04,10,15,46,9.90
2007,04,10,15,47,9.90
2007,04,10,15,48,9.90
2007,04,10,15,49,9.80
2007,04,10,15,50,9.80
2007,04,10,15,51,9.80
2007,04,10,15,52,9.80
2007,04,10,15,53,9.80
2007,04,10,15,54,9.80
2007,04,10,15,55,9.80
2007,04,10,15,56,9.70
2007,04,10,15,57,9.60
2007,04,10,15,58,9.60
2007,04,10,15,59,9.60
2007,04,10,16,00,9.60
2007,04,10,16,01,9.60
2007,04,10,16,02,9.60
2007,04,10,16,03,9.60
2007,04,10,16,04,9.60
2007,04,10,16,05,9.60
2007,04,10,16,06,9.60
2007,04,10,16,07,9.60
2007,04,10,16,08,9.60
2007,04,10,16,09,9.70
2007,04,10,16,10,9.70
2007,04,10,16,11,9.80
2007,04,10,16,12,9.80
2007,04,10,16,13,9.70
2007,04,10,16,14,9.80
2007,04,10,16,15,9.80
2007,04,10,16,16,9.80
2007,04,10,16,17,9.80
2007,04,10,16,18,9.90
2007,04,10,16,19,9.90
2007,04,10,16,20,9.90
2007,04,10,16,21,9.90
2007,04,10,16,22,9.90
2007,04,10,16,23,9.90
2007,04,10,16,24,9.90
2007,04,10,16,25,9.90
2007,04,10,16,26,9.90
2007,04,10,16,27,9.90
2007,04,10,16,28,9.90
2007,04,10,16,29,10.00
2007,04,10,16,30,10.00
2007,04,10,16,31,10.00
2007,04,10,16,32,10.00
2007,04,10,16,33,10.10
2007,04,10,16,34,10.10
2007,04,10,16,35,10.10
2007,04,10,16,36,10.10
2007,04,10,16,37,10.20
2007,04,10,16,38,10.20
2007,04,10,16,39,10.30
2007,04,10,16,40,10.40
2007,04,10,16,41,10.50
2007,04,10,16,42,10.60
2007,04,10,16,43,10.70
2007,04,10,16,44,10.80
2007,04,10,16,45,10.80
2007,04,10,16,46,10.90
2007,04,10,16,47,10.80
2007,04,10,16,48,10.70
2007,04,10,16,49,10.60
2007,04,10,16,50,10.40
2007,04,10,16,51,10.20
2007,04,10,16,52,10.00
2007,04,10,16,53,9.90
2007,04,10,16,54,9.80
2007,04,10,16,55,9.80
2007,04,10,16,56,9.80
2007,04,10,16,57,9.80
2007,04,10,16,58,9.80
2007,04,10,16,59,9.70
2007,04,10,17,00,9.60
2007,04,10,17,01,9.40
2007,04,10,17,02,9.30
2007,04,10,17,03,9.20
2007,04,10,17,04,9.10
2007,04,10,17,05,9.10
2007,04,10,17,06,9.00
2007,04,10,17,07,9.00
2007,04,10,17,08,9.00
2007,04,10,17,09,9.00
2007,04,10,17,10,9.10
2007,04,10,17,11,9.20
2007,04,10,17,12,9.20
2007,04,10,17,13,9.30
2007,04,10,17,14,9.30
2007,04,10,17,15,9.30
2007,04,10,17,16,9.30
2007,04,10,17,17,9.30
2007,04,10,17,18,9.40
2007,04,10,17,19,9.40
2007,04,10,17,20,9.50
2007,04,10,17,21,9.50
2007,04,10,17,22,9.60
2007,04,10,17,23,9.60
2007,04,10,17,24,9.60
2007,04,10,17,25,9.70
2007,04,10,17,26,9.70
2007,04,10,17,27,9.60
2007,04,10,17,28,9.60
2007,04,10,17,29,9.60
2007,04,10,17,30,9.70
2007,04,10,17,31,9.70
2007,04,10,17,32,9.70
2007,04,10,17,33,9.70
2007,04,10,17,34,9.70
2007,04,10,17,35,9.70
2007,04,10,17,36,9.60
2007,04,10,17,37,9.60
2007,04,10,17,38,9.60
2007,04,10,17,39,9.60
2007,04,10,17,40,9.50
2007,04,10,17,41,9.50
2007,04,10,17,42,9.50
2007,04,10,17,43,9.50
2007,04,10,17,44,9.40
2007,04,10,17,45,9.40
2007,04,10,17,46,9.50
2007,04,10,17,47,9.50
2007,04,10,17,48,9.50
2007,04,10,17,49,9.50
2007,04,10,17,50,9.50
2007,04,10,17,51,9.50
2007,04,10,17,52,9.50
2007,04,10,17,53,9.50
2007,04,10,17,54,9.40
2007,04,10,17,55,9.40
2007,04,10,17,56,9.40
2007,04,10,17,57,9.40
2007,04,10,17,58,9.40
2007,04,10,17,59,9.30
2007,04,10,18,00,9.30